Flag for Japan Weather past 2 weeks in Nagoya, Japan

Now
48 °F

Clear.


Feels Like: 45 °F
Forecast: 36 / 66 °F
Wind: 8 mph from Northeast

Location: Nagoya Airport

Current Time: Mar 28, 2015 at 3:13:41 AM

Latest Report: Mar 28, 2015 at 2:30 AM


Visibility: 10 mi

Pressure: 30.15 "Hg

Humidity: 71%

Dew point: 39 °F

Location of NagoyaLocation

Historic Weather in Nagoya — Graph

°F

Nagoya temperature yesterday

Maximum temperature yesterday: 59 °F (at 3:30 PM)
Minimum temperature yesterday: 39 °F (at 5:00 AM)
Average temperature yesterday: 51 °F

Past Weeks' High & Low Weather Summary

 TemperatureHumidityPressure
High64 °F (Mar 18, 3:30 PM)100% (Mar 16, 4:30 PM)30.51 "Hg (Mar 16, 4:30 PM)
Low37 °F (Mar 13, 2:00 AM)24% (Mar 26, 11:30 AM)29.68 "Hg (Mar 19, 12:30 PM)
Average51 °F67%30.11 "Hg
* Reported Mar 13 2:00 AM — Mar 28 2:00 AM, Nagoya, Weather by CustomWeather, © 2015

Note: Actual official high and low records may vary slightly from our data, if they occured in-between our weather recording intervals... More about our weather records

Advertising

Nagoya weather history for previous 24 hours

 ConditionsComfort  
Time TempWeatherWind HumidityBarometerVisibility
2:00 AM
Sat, Mar 28
50 °FClear.8 mph76%30.18 "Hg10 mi
1:30 AM50 °FClear.9 mph76%30.18 "Hg10 mi
1:00 AM52 °FClear.8 mph67%30.18 "Hg10 mi
12:30 AM52 °FClear.6 mph62%30.15 "Hg10 mi
12:00 AM52 °FClear.9 mph58%30.18 "Hg10 mi
11:30 PM
Fri, Mar 27
54 °FClear.12 mph51%30.18 "Hg10 mi
11:00 PM54 °FClear.10 mph54%30.18 "Hg10 mi
10:30 PM52 °FClear.8 mph72%30.18 "Hg10 mi
10:00 PM52 °FClear.6 mph72%30.18 "Hg10 mi
9:30 PM54 °FClear.10 mph67%30.21 "Hg10 mi
9:00 PM54 °FClear.8 mph58%30.21 "Hg10 mi
8:30 PM55 °FClear.9 mph55%30.21 "Hg10 mi
8:00 PM55 °FClear.12 mph67%30.21 "Hg10 mi
7:30 PM54 °FClear.9 mph77%30.21 "Hg10 mi
7:00 PM52 °FClear.8 mph72%30.18 "Hg10 mi
6:30 PM54 °FClear.7 mph72%30.18 "Hg10 mi
6:00 PM55 °FSunny.8 mph72%30.18 "Hg10 mi
5:30 PM55 °FSunny.10 mph67%30.18 "Hg10 mi
5:00 PM57 °FSunny.10 mph55%30.18 "Hg10 mi
4:30 PM59 °FSunny.10 mph51%30.18 "Hg10 mi
4:00 PM59 °FSunny.12 mph51%30.18 "Hg10 mi
3:30 PM59 °FSunny.10 mph51%30.18 "Hg10 mi
3:00 PM57 °FSunny.9 mph51%30.18 "Hg10 mi
2:30 PM57 °FSunny.12 mph59%30.21 "Hg10 mi
2:00 PM57 °FSunny.5 mph48%30.21 "Hg10 mi
1:30 PM57 °FPassing clouds.3 mph41%30.24 "HgN/A
1:00 PM57 °FSunny.5 mph36%30.24 "Hg10 mi
12:00 PM54 °FSunny.6 mph41%30.27 "Hg10 mi
11:30 AM55 °FSunny.2 mph41%30.27 "Hg10 mi
11:00 AM54 °FSunny.6 mph38%30.30 "Hg10 mi
10:30 AM52 °FSunny.7 mph35%30.33 "Hg10 mi
10:00 AM52 °FSunny.8 mph38%30.33 "Hg10 mi
9:30 AM50 °FSunny.7 mph32%30.33 "Hg10 mi
9:00 AM50 °FSunny.9 mph37%30.36 "Hg10 mi
8:30 AM48 °FSunny.9 mph43%30.36 "Hg10 mi
8:00 AM46 °FSunny.8 mph53%30.36 "Hg10 mi
7:30 AM46 °FSunny.9 mph53%30.36 "Hg10 mi
7:00 AM45 °FSunny.10 mph57%30.36 "Hg10 mi
6:30 AM43 °FSunny.12 mph61%30.36 "Hg10 mi
6:00 AM43 °FSunny.10 mph66%30.36 "Hg10 mi
5:30 AM45 °FClear.12 mph57%30.36 "Hg10 mi
5:00 AM39 °FClear.8 mph61%30.36 "Hg10 mi
4:30 AM43 °FClear.5 mph53%30.36 "Hg10 mi
4:00 AM41 °FClear.2 mph45%30.36 "Hg10 mi
3:30 AM43 °FClear.7 mph46%30.36 "Hg10 mi
3:00 AM43 °FClear.5 mph46%30.36 "Hg10 mi
Weather by CustomWeather, © 2015

See weather overviewHow to use our weather pages